Torna al catalogo

FLOCK 4H 33

AttivoScienzaSSO
NORAD 66736·PAYLOAD·🇺🇸 United States

Lanciato Nov 28, 2025 da Vandenberg Space Force Base

Loading…

Prossimi Passaggi (prossime 24 ore)

TLE

AggiornatoSource: CelesTrak SupGP

Epoca: Sep 15, 2026, 00:45 UTC

1 66736C 25276BY  26258.03135417  .00005481  00000+0  24201-3 0  2584
2 66736  97.4143 330.6278 0002057  27.8779 225.6663 15.21814425    15

Traccia FLOCK 4H 33 in tempo reale con AllMySat

Download on the App Store